sat.trackr.live / text

‹ back to catalog

STARLINK-31199

NORAD 58861 · 2024-019J

PAYLOAD ACTIVE UNKNOWN

§ Identity

Operator
Country
US
Launch date
2024-01-29
Launch site
AFETR
Launch vehicle
Mass (kg)
RCS (m²)

Purposes: comms

External: N2YO · Heavens-Above · Gunter

§ Orbital elements

Epoch: 2026-05-25T03:02:39.255072Z

Period
94.27 min
Inclination
43.0014°
Eccentricity
0.0001507
Mean motion
15.27574730 rev/d
Perigee alt
482.0 km
Apogee alt
484.1 km
Semi-major
6,861.2 km
B*
4.7623e-6
RAAN
177.1465°
Arg perigee
267.9113°
Mean anomaly
92.1566°
Rev number
13,077

§ Raw data

STARLINK-311991 58861U 24019J   26145.12684323 -.00000131  00000+0  47623-5 0  99932 58861  43.0014 177.1465 0001507 267.9113  92.1566 15.27574730130773

JSON: /api/v1/satellites/58861 · /tle

For live sub-satellite position, see the globe view (requires WebGL).

§ Visibility from observer

Set your observer location to see the next 7 days of passes ≥ 10°. The values pass through the URL so the page stays shareable.

No JS? Fill the form by hand. The geolocation button needs JavaScript.